YAOGAN-30 Z (48425 NORAD) Tracking and Keplerian Element Data

This shows tracking and keplerian element data for the satellite.

Feedback or suggestion? Click here.




ElementValue
Catalog48425
NameYAOGAN-30 Z
Epoch Orbit1257
Epoch Day211.01100881
Epoch Year2021
RAAN329.3834
Inclination35.0001
Eccentricity0.0002487
Argument of Perigee160.216
Mean Anonmoly199.8665
Mean Motion14.89959134
Decay Rate2.82E-06
L11 48425U 21039C 21211.01100881 .00000282 00000-0 31429-4 0 9999
L22 48425 35.0001 329.3834 0002487 160.2160 199.8665 14.89959134 12575

Live tracking and technical data element details for YAOGAN-30 Z (NORAD 48425). YAOGAN-30 Z can be tracked NOW for your location showing map with azimuth and elevation plus other details from your city location.

Track the satellite on the map from your city or location and see movement details for azimuth, elevation, latitude, longitude, range, height, and movement on the map or in text.







IsCatalogInMostPopularTable: catalog: 48425, numindb: 33
Update: records affected: 1



GetName: 48425 YAOGAN-30 Z

Hit Count: updated at: Sat, 31 Jul 2021 16:16:05 GMT